This demonstration page uses our WeatherBlox Daily Observations layout. Learn more.

Left ArrowRight Arrow

34.16533, -84.80231

Hourly Observations for October 15, 2019

Temp ( °F °C ) Dew Point ( °F °C ) Humidity (%) Winds ( mph kmh ) Pressure ( in mb ) Visibility ( mi km ) Precip ( " mm )
12:53 am 00:53 Clear 59 15 57 13.9 93 93 Calm 30.08 1019 10 16 0.00 0.00
1:53 am 01:53 Mostly Cloudy 61 16.1 57 13.9 87 87 Calm 30.08 1019 10 16 0.00 0.00
2:53 am 02:53 Cloudy 62 16.7 58 14.4 86 86 Calm 30.08 1019 10 16 0.00 0.00
3:53 am 03:53 Cloudy 63 17.2 58 14.4 84 84 Calm 30.08 1019 10 16 0.00 0.00
4:53 am 04:53 Mostly Cloudy 62 16.7 58 14.4 86 86 Calm 30.06 1018 10 16 0.00 0.00
5:53 am 05:53 Cloudy 64 17.8 59 15 84 84 Calm 30.07 1018 10 16 0.00 0.00
6:53 am 06:53 Cloudy 65 18.3 58 14.4 78 78 Calm 30.07 1018 10 16 0.00 0.00
7:53 am 07:53 Cloudy 65 18.3 57 13.9 76 76 Calm 30.06 1018 10 16 0.00 0.00
8:53 am 08:53 Cloudy 65 18.3 56 13.3 73 73 Calm 30.07 1018 10 16 0.00 0.00
9:53 am 09:53 Cloudy 67 19.4 58 14.4 73 73 Calm 30.08 1019 10 16 0.00 0.00
10:53 am 10:53 Partly Cloudy 71 21.7 57 13.9 61 61 SE 7 11 30.07 1018 10 16 0.00 0.00
11:53 am 11:53 Cloudy 72 22.2 56 13.3 57 57 SSE 8 13 30.06 1018 10 16 0.00 0.00
12:53 pm 12:53 Cloudy 72 22.2 56 13.3 57 57 SSE 6 9 30.05 1018 10 16 0.00 0.00
1:53 pm 13:53 Cloudy 68 20 59 15 73 73 SSE 6 9 30.04 1017 10 16 0.00 0.00
2:28 pm 14:28 Mostly Cloudy 70 21.1 60 15.6 71 71 VRB 5 7 30.02 1017 10 16 0.00 0.00
2:40 pm 14:40 Cloudy 71 21.7 60 15.6 68 68 VRB 3 6 30.02 1017 10 16 0.00 0.00
2:53 pm 14:53 Cloudy 70 21.1 60 15.6 71 71 E 6 9 30.01 1016 10 16 0.00 0.00
3:53 pm 15:53 Cloudy with Light Rain 69 20.6 61 16.1 76 76 E 3 6 29.98 1015 10 16 0.00 0.00
4:53 pm 16:53 Cloudy 69 20.6 60 15.6 73 73 SE 3 6 29.98 1015 10 16 0.00 0.00
5:53 pm 17:53 Cloudy 69 20.6 60 15.6 73 73 Calm 29.96 1015 10 16 0.00 0.00
6:45 pm 18:45 Cloudy with Light Rain 66 18.9 62 16.7 87 87 E 3 6 29.96 1014 5 8 0.00 0.00
6:53 pm 18:53 Mostly Cloudy with Light Rain 66 18.9 62 16.7 87 87 E 5 7 29.94 1014 9 14 0.00 0.00
7:50 pm 19:50 Mostly Cloudy 64 18 61 16 88 88 E 5 7 29.94 1014 10 16 0.01 0.25
7:53 pm 19:53 Mostly Cloudy 66 18.9 61 16.1 84 84 E 5 7 29.92 1013 10 16 0.01 0.25
8:53 pm 20:53 Cloudy 66 18.9 61 16.1 84 84 E 3 6 29.93 1014 10 16 0.00 0.00
9:53 pm 21:53 Cloudy with Mist and Fog 64 17.8 62 16.7 93 93 ESE 3 6 29.92 1013 4 6 0.00 0.00
10:53 pm 22:53 Cloudy with Light Rain 64 17.8 62 16.7 93 93 NE 5 7 29.92 1013 5 8 0.01 0.25
11:05 pm 23:05 Cloudy with Light Rain 64 17.8 62 16.7 93 93 ENE 3 6 29.94 1014 4 6 0.01 0.25
11:26 pm 23:26 Cloudy with Light Rain 64 17.8 62 16.7 93 93 Calm 29.94 1014 3 4 0.02 0.51
11:53 pm 23:53 Cloudy with Light Rain 64 17.8 62 16.7 93 93 E 5 7 29.91 1013 3 4 0.04 1.02

Powered by AerisWeather